#timestamp,LO_Frequency,Hit,StdDev 
1674957615.8,286047010.4,N
1674957635.6,286047009.6,N
1674957655.4,286047007.9,N
1674957675.3,286047008.0,N
1674957695.1,286047006.1,N
1674957715.9,286047007.5,N
1674957735.7,286047004.8,N
1674957755.5,286047004.9,N
1674957775.4,286047004.9,N
1674957795.2,286047009.0,N
1674957815.0,286047008.4,N
1674957815.9,286047008.4,N
1674957835.8,286047006.1,N
1674957855.6,286047009.2,N
1674957875.5,286047006.3,N
1674957895.3,286047006.3,N
1674957915.1,286047009.0,N
1674957935.9,286047007.9,N
1674957955.7,286047009.1,N
1674957975.5,286047008.1,Y
1674957995.4,286047002.3,P
1674958015.2,286047002.8,N
1674958035.0,286047000.7,N
1674958036.0,286047000.7,N
1674958055.8,286046996.6,N
1674958075.6,286046997.5,N
1674958095.5,286046996.8,N
1674958115.3,286046998.8,N
1674958135.1,286047001.2,N
1674958155.9,286046999.0,N
1674958175.7,286046996.5,N
1674958195.6,286046998.1,N
1674958215.4,286046998.3,N
1674958235.2,286046998.8,N
1674958255.1,286046996.8,N
1674958256.0,286046996.8,N
1674958275.8,286046997.1,N
1674958295.6,286046997.4,N
1674958315.5,286046997.0,N
1674958335.3,286046995.7,N
1674958355.1,286046995.9,N
1674958375.9,286046999.5,N
1674958395.7,286047000.6,N
1674958415.6,286047000.4,N
1674958435.4,286047004.3,N
1674958455.2,286047002.7,N
1674958475.1,286047002.5,N
1674958476.0,286047002.5,N
1674958495.8,286046999.8,N
1674958515.6,286047002.2,N
1674958535.5,286047003.8,N
1674958555.3,286047004.0,N
1674958575.2,286047004.4,N
1674958595.9,286047001.3,N
1674958615.7,286047000.1,N
1674958635.6,286046999.9,N
1674958655.4,286047003.2,N
1674958675.3,286047003.3,N
1674958695.1,286047003.6,N
1674958696.0,286047003.6,N
1674958715.8,286047005.6,N
1674958735.7,286047003.6,N
1674958755.5,286047004.1,N
1674958775.3,286047004.4,N
1674958795.2,286047005.7,N
1674958815.0,286047001.6,N
1674958815.9,286047001.6,N
1674958835.8,286047002.4,N
1674958855.6,286047000.9,N
1674958875.4,286047011.9,Y
1674958895.3,286046999.9,P
1674958915.1,286047000.0,N
1674958935.9,286047002.2,N
1674958955.7,286047002.8,N
1674958975.5,286047000.0,N
1674958995.4,286047001.6,N
1674959015.2,286047002.2,N
1674959035.0,286047002.6,N
1674959035.9,286047002.6,N
1674959055.8,286047001.3,N
1674959075.6,286047003.8,Y
1674959095.5,286047001.7,P
1674959115.3,286047001.7,P
1674959135.1,286047002.6,P
1674959155.9,286047000.4,N
1674959175.7,286046999.7,N
1674959195.5,286047004.1,Y
1674959215.4,286046998.4,P
1674959235.2,286046999.5,N
1674959255.1,286047000.3,N
1674959256.0,286047000.3,N
1674959275.8,286047002.2,N
1674959295.6,286047001.2,N
1674959315.5,286047000.6,N
1674959335.3,286047003.7,Y
1674959355.2,286046999.7,P
1674959375.9,286047001.0,N
1674959395.7,286047000.7,N
1674959415.6,286047000.2,N
1674959435.4,286046999.9,N
1674959455.3,286047002.3,Y
1674959475.1,286047001.4,P
1674959476.0,286047001.4,N
1674959495.8,286046999.3,N
1674959515.7,286047001.0,N
1674959535.5,286047000.1,N
1674959555.3,286047002.0,N
1674959575.2,286046998.3,N
1674959595.0,286046999.1,N
1674959595.9,286046999.1,N
1674959615.8,286047001.1,N
1674959635.6,286047002.8,N
1674959655.5,286047002.4,N
1674959675.3,286047000.4,N
1674959695.1,286047001.8,N
1674959715.9,286047003.8,N
1674959735.7,286047003.4,N
1674959755.5,286047005.8,Y
1674959775.4,286047007.6,P
1674959795.2,286047004.2,N
1674959815.1,286047002.3,N
1674959816.0,286047002.3,N
1674959835.8,286047004.1,N
1674959855.6,286047004.0,N
1674959875.5,286047004.3,N
1674959895.3,286047004.3,N
1674959915.1,286047002.8,N
1674959935.9,286046999.2,N
1674959955.7,286046999.9,N
1674959975.6,286046999.8,N
1674959995.4,286047001.9,N
1674960015.2,286047002.3,N
1674960035.1,286047002.0,N
1674960036.0,286047002.0,N
1674960055.8,286047004.1,N
1674960075.6,286047005.8,N
1674960095.5,286047000.1,N
1674960115.3,286047000.7,N
1674960135.2,286047000.2,N
1674960155.9,286046999.9,N
1674960175.7,286047002.6,N
1674960195.6,286047001.4,N
1674960215.4,286047004.3,N
1674960235.2,286046998.9,N
1674960255.1,286046996.9,N
1674960256.0,286046996.9,N
1674960275.8,286047000.9,N
1674960295.7,286047002.8,N
1674960315.5,286047002.0,N
1674960335.3,286047000.2,N
1674960355.2,286046996.6,N
1674960375.0,286046998.6,N
1674960375.9,286046998.6,N
1674960395.8,286046998.1,N
1674960415.6,286046995.8,N
1674960435.4,286046997.1,N
1674960455.3,286047001.2,N
1674960475.1,286047001.0,N
1674960495.8,286046998.5,N
1674960515.7,286046999.6,N
1674960535.5,286046999.2,N
1674960555.4,286046997.5,N
1674960575.2,286046997.3,N
1674960595.0,286046997.3,N
1674960595.9,286046997.3,N
1674960615.8,286046997.3,N
1674960635.6,286046997.8,N
1674960655.4,286046995.0,N
1674960675.3,286046995.3,N
1674960695.1,286046993.6,N
1674960715.9,286046994.2,N
1674960735.7,286046994.0,N
1674960755.5,286046997.5,N
1674960775.4,286046998.4,N
1674960795.2,286047002.5,N
1674960815.0,286047003.2,N
1674960815.9,286047003.2,N
1674960835.8,286047003.7,N
1674960855.6,286047001.8,N
1674960875.5,286047000.8,N
1674960895.3,286047001.1,N
1674960915.1,286047000.3,N
1674960935.9,286047002.7,N
1674960955.7,286047001.6,N
1674960975.6,286047003.6,N
1674960995.4,286047005.1,N
1674961015.2,286047003.9,N
1674961035.1,286047005.6,N
1674961036.0,286047005.6,N
1674961055.8,286047005.9,N
1674961075.7,286047002.8,N
1674961095.5,286047000.9,N
1674961115.3,286046997.2,N
1674961135.2,286046999.6,N
1674961155.0,286047000.1,N
1674961155.9,286047000.1,N
1674961175.8,286047003.8,N
1674961195.6,286047003.0,N
